Location: Calolzio
(45.8000°N, 9.4333°E)
Time: 01:25:07
(UTC+00:00)

Daily predictions for brighter satellites

Satellite Brightness Start Highest point End
(mag) Time Altitude Azimuth Time Altitude Azimuth Time Altitude Azimuth
CENTAUR R/B 3.8 02:45:10 46° NNE 02:45:52 47° NE 02:54:15 10° ESE
NOSS 3-2 (A) 4.2 03:03:00 71° ENE 03:03:00 71° ENE 03:11:05 10° SE
USA 238 DEB 3.9 03:18:27 76° NE 03:18:27 76° NE 03:25:56 10° SE
USA 238 3.9 03:18:30 75° NE 03:18:30 75° NE 03:26:02 10° SE
Lacrosse 4 Rocket 3.9 03:22:25 19° NE 03:22:25 19° NE 03:25:01 10° E
Cosmos 1745 Rocket 4.3 03:22:53 37° SSE 03:25:21 63° E 03:31:37 10° NNE
Cosmos 2297 Rocket 4.4 03:32:24 14° N 03:32:24 14° N 03:33:19 10° NNE
ALOS 3.1 03:36:00 10° NNE 03:47:07 - S 03:40:32 48° E
Lacrosse 5 4.0 03:43:43 12° S 03:47:16 23° ESE 03:51:13 10° ENE
Cosmos 2263 Rocket 2.7 03:46:18 27° S 03:49:16 57° ESE 03:54:51 10° NNE
SJ 16-02 3.1 03:56:41 10° SSE 04:00:36 32° E 04:04:33 10° NE
USA 306 4.4 04:04:26 28° NNE 04:04:26 28° NNE 04:07:01 10° NE
ATLAS 3B R/B 3.8 03:59:42 22° NNW 04:03:35 39° NE 04:10:11 10° ESE
Cosmos 1603 3.6 04:08:24 53° NNW 04:09:49 90° ESE 04:15:27 10° SSE
COSMO-SKYMED 1 3.3 04:06:57 10° SSE 04:11:08 50° ENE 04:13:49 21° N
FENGYUN 3A 3.5 04:07:10 10° NNE 04:12:38 86° WNW 04:18:02 10° SSW
EXPRESS MD2 4.0 04:17:00 44° NNE 04:17:00 44° NNE 04:21:45 10° ENE
Cosmos 1386 Rocket 4.5 04:10:27 10° SSW 04:16:45 60° WNW 04:23:03 10° N
Cosmos 1943 3.1 04:17:13 40° NNW 04:19:25 86° WSW 04:25:07 10° SSE
ADEOS 3.4 04:15:06 10° NNE 04:20:22 83° WNW 04:25:35 10° SSW
Cosmos 1933 3.3 04:21:48 57° N 04:22:35 81° E 04:26:41 10° S
Cosmos 1777 Rocket 3.9 04:23:33 57° W 04:23:57 59° WNW 04:29:07 10° NNE
NOSS 3-2 (C) 4.0 04:20:32 35° NW 04:24:11 69° WSW 04:32:40 10° SSE
NOSS 3-4 (A) 3.5 04:19:51 13° SSW 04:25:04 74° SE 04:31:20 10° NE
ATLAS CENTAUR R/B 3.4 04:23:42 15° N 04:25:09 18° NE 04:27:52 10° E
NOSS 3-4 (C) 3.5 04:19:50 13° SSW 04:25:12 73° SE 04:31:28 10° NE
Cosmos 1680 Rocket 4.4 04:24:30 12° N 04:29:16 49° ENE 04:34:25 10° SE
Nadezhda 1 Rocket 4.3 04:28:56 41° WNW 04:29:31 42° W 04:35:21 10° SSW
STPSAT 2 (USA 217) 4.5 04:30:35 55° NW 04:31:26 71° WSW 04:36:00 10° SSE
Meteor 1-4 Rocket 2.8 04:31:52 41° NNE 04:32:52 63° ENE 04:36:17 10° SSE
Cosmos 2084 3.6 04:33:10 53° WSW 04:33:17 53° WSW 04:37:40 10° SSE
SL-4 R/B 2.2 04:33:39 50° N 04:33:39 50° N 04:37:09 10° ENE
SKYMED 3 4.5 04:30:48 10° SSE 04:35:09 89° ENE 04:38:08 20° NNW
Meteor 1-31 Rocket 2.6 04:31:22 10° N 04:39:47 - SSW 04:35:12 68° WNW
Cosmos 1782 3.5 04:31:46 10° N 04:35:43 53° ENE 04:39:40 10° SSE
Cosmos 1538 Rocket 4.1 04:35:15 42° WNW 04:36:34 52° WSW 04:41:40 10° S
CENTAUR R/B 3.3 04:32:23 28° NW 04:37:02 61° WSW 04:45:42 10° SSE
Cosmos 2227 Rocket 4.1 04:40:18 14° NNW 04:40:18 14° NNW 04:41:51 10° N
Cosmos 2227 4.1 04:36:02 22° SW 04:39:43 61° WNW 04:45:18 10° NNE
USA 234 4.2 04:33:38 10° ENE 04:39:53 46° SE 04:46:06 10° SSW
Cosmos 158 Rocket 3.9 04:37:07 18° NNW 04:40:43 75° ENE 04:45:40 10° SSE
ARGOS Delta rocket 4.2 04:37:29 10° N 04:42:25 43° WNW 04:47:04 10° SW
ATLAS 2AS CENTAUR R/B 3.1 04:36:49 10° SSW 04:44:46 81° SE 04:52:40 10° NE
deb Chang Zheng 4 3.5 04:41:53 10° N 04:46:10 60° WNW 04:50:26 10° SSW
Cosmos 1633 2.7 04:52:41 10° SSW 04:56:04 45° WNW 04:59:30 10° N
FALCON 9 DEB 4.4 04:57:31 26° NNW 04:57:50 26° N 05:00:50 10° NE
Gbstr 26 Del rocket 2.9 04:56:52 34° NW 04:58:16 59° NNE 05:02:11 10° ESE
USA 307 4.1 04:57:30 24° NW 04:58:41 28° N 05:02:26 10° NE
SKYMED 2 3.7 04:55:01 10° S 04:59:13 51° W 05:02:28 17° NNW
Cosmos 1515 Rocket 3.6 04:55:00 10° N 04:59:29 81° E 05:03:57 10° S
Lacrosse 4 Rocket 1.5 04:58:46 28° NW 05:00:54 63° WSW 05:05:14 10° SSE
Cosmos 1898 Rocket 4.1 04:56:07 10° S 05:01:19 61° ESE 05:06:36 10° NNE
Cosmos 1184 Rocket 3.0 05:00:00 10° SSW 05:03:10 45° WNW 05:06:20 10° N
SAR-Lupe-4 4.1 05:00:04 10° SSW 05:03:23 36° W 05:03:59 34° WNW
METEOR-M 4.5 04:58:34 10° N 05:03:33 41° WNW 05:08:30 10° SW
USA 308 4.2 05:03:29 23° NW 05:04:57 27° N 05:08:41 10° NE
Meteor 2-17 Rocket 4.3 05:02:26 10° SSW 05:08:27 71° W 05:14:32 10° N
YAOGAN 6 3.7 05:05:03 10° NNE 05:08:28 45° E 05:11:48 10° S
Cosmos 1844 Rocket 3.5 05:03:35 10° S 05:09:03 54° ESE 05:14:35 10° NE
SL-19 R/B 4.5 05:06:02 10° N 05:10:05 66° WNW 05:14:43 10° SSW
Envisat 3.7 05:06:00 10° NNE 05:11:01 58° E 05:16:02 10° S
Cosmos 1461 3.9 05:09:38 25° WNW 05:11:18 32° WSW 05:15:18 10° S
BREEZE-M DEB (TANK) 4.0 05:08:46 10° SW 05:12:08 53° SE 05:22:18 10° ENE
CZ-4B R/B 3.2 05:08:49 10° N 05:13:12 52° WNW 05:17:30 10° SSW
Meteor 1-26 Rocket 4.4 05:08:40 10° NNW 05:14:16 49° W 05:19:40 10° SSW
Cosmos 1151 Rocket 3.6 05:12:35 16° NW 05:15:24 34° W 05:19:15 10° SSW
Okean O Rocket 3.6 05:12:04 10° NNE 05:16:04 32° E 05:20:03 10° SSE
Cosmos 1689 Rocket 2.8 05:13:44 10° SSW 05:16:17 29° W 05:16:25 29° W
Nadezhda 3 Rocket 4.5 05:10:34 10° N 05:16:52 65° E 05:23:03 10° SSE
ALOS 3.4 05:14:06 10° NNW 05:17:37 22° WNW 05:18:59 19° W
H-2A R/B 2.7 05:16:52 10° N 05:20:46 71° WNW 05:24:38 10° SSW
BREEZE-M DEB (TANK) 3.4 05:16:31 17° WNW 05:22:06 62° SW 05:24:59 10° SE
Cosmos 1937 Rocket 3.9 05:18:05 10° S 05:23:11 68° ESE 05:28:21 10° NNE
Cosmos 1500 Rocket 3.5 05:19:13 10° S 05:23:31 86° E 05:27:51 10° N
CZ-4C R/B 2.1 05:18:59 10° SW 05:23:53 86° SE 05:29:50 10° NE
ERBS 3.8 05:25:08 19° NW 05:26:01 21° NNW 05:28:36 10° NNE
Cosmos 1328 Rocket 4.3 05:22:09 10° NNW 05:26:02 31° W 05:29:56 10° SSW
Cosmos 2181 Rocket 4.4 05:21:07 10° NNW 05:26:49 39° W 05:32:27 10° SSW
BREEZE-M DEB (TANK) 2.6 05:25:50 16° WSW 05:27:56 82° S 05:32:43 10° E
Lacrosse 5 1.8 05:24:43 10° SW 05:29:48 75° NW 05:34:53 10° NE
Cosmos 2263 Rocket 3.1 05:28:46 10° WSW 05:33:33 27° NW 05:38:23 10° N
USA 305 4.2 05:32:40 14° NW 05:35:35 27° N 05:39:18 10° ENE
Meteor 1-10 Rocket 4.2 05:31:34 10° NNW 05:37:09 87° W 05:42:45 10° S
Aureole 2 Rocket 3.7 05:35:12 10° S 05:37:32 32° ESE 05:39:53 10° NE
Meteor 1-27 Rocket 4.4 05:32:11 10° N 05:37:52 61° ENE 05:43:38 10° SSE
Meteor 2-3 Rocket 4.4 05:33:32 10° SW 05:38:38 33° WNW 05:43:50 10° N
SJ 16-02 2.2 05:35:23 10° WSW 05:39:11 28° WNW 05:43:01 10° N
Cosmos 2154 Rocket 4.0 05:33:45 10° S 05:39:58 88° W 05:46:16 10° N
BREEZE-M DEB 3.8 05:31:43 13° WNW 05:41:08 67° SW 05:44:21 10° SE
FALCON 9 DEB 2.9 05:38:18 10° SW 05:41:30 87° SSE 05:44:44 10° ENE
Cosmos 1862 3.3 05:38:30 10° SSW 05:42:31 67° W 05:46:35 10° N
USA 306 4.2 05:40:35 12° NW 05:43:54 27° N 05:47:37 10° ENE
Cosmos 858 Rocket 4.5 05:40:34 10° SSW 05:45:47 80° WNW 05:51:04 10° NNE
Cosmos 1743 Rocket 3.7 05:41:59 10° SSW 05:46:20 54° WNW 05:50:45 10° N
COSMO-SKYMED 1 4.1 05:44:45 10° SW 05:47:36 17° W 05:50:26 10° NW
CZ-4B R/B 3.6 05:42:36 10° NNE 05:47:56 69° ESE 05:53:19 10° S
Cosmos 2082 Rocket 4.3 05:43:53 10° N 05:47:57 20° NE 05:52:01 10° E
CZ-2C R/B 2.9 05:45:07 10° SSE 05:50:39 79° ENE 05:56:04 10° N
Sich 1 3.6 05:46:57 10° S 05:51:20 65° E 05:55:44 10° NNE
NOSS 7 (H) 4.1 05:48:29 10° SW 05:51:54 82° NW 05:54:52 10° NE
MOS 1-B 4.3 05:46:52 10° NNE 05:52:41 76° WNW 05:58:29 10° SSW
Cosmos 990 Rocket 4.3 05:48:59 10° SW 05:53:58 44° WNW 05:59:02 10° N
ATLAS 3B R/B 2.9 05:47:49 10° NW 05:54:38 61° WSW 06:01:42 10° SSE
COSMOS 2455 3.6 05:51:35 10° SSW 05:57:29 60° ESE 06:03:25 10° NE
PSLV R/B 4.4 05:55:01 10° N 05:58:33 33° WNW 06:02:00 10° SW
COSMOS 2406 4.4 05:54:07 10° NNW 05:59:34 42° NE 06:05:00 10° SE
ATLAS CENTAUR R/B 1.3 06:00:37 10° NW 06:04:20 60° WSW 06:08:13 10° SSE
Cosmos 2074 Rocket 4.5 05:59:17 10° SW 06:05:01 38° WNW 06:10:47 10° N
Cosmos 1833 Rocket 4.0 06:00:04 10° NNW 06:05:18 38° NE 06:10:30 10° ESE
MOS 1 Rocket 4.2 06:01:10 10° SSW 06:05:19 31° W 06:09:45 10° NNW
Cosmos 1805 Rocket 3.6 06:01:43 10° SSW 06:06:06 67° W 06:10:34 10° N
